1487516400.81,54465,14.69,73270.8,-2.73,-44.07,-44.07,0,*50
1487516402.04,54466,14.69,73268.3,-2.75,-43.87,-44.07,0,*5A
1487516403.28,54467,14.69,73264.0,-2.75,-43.41,-43.35,0,*57
1487516404.52,54468,14.69,73268.5,-2.75,-43.15,-43.15,0,*5B
1487516405.79,54469,14.69,73264.0,-2.75,-42.95,-43.01,0,*56
1487516407.0,54470,14.63,73264.5,-2.73,-43.41,-43.35,0,*57
1487516408.24,54471,14.63,73264.8,-2.75,-43.41,-43.35,0,*50
1487516409.53,54472,14.69,73266.5,-2.75,-43.81,-43.67,0,*58
1487516410.79,54473,14.69,73264.8,-2.77,-43.55,-43.49,0,*5E
1487516412.03,54474,14.69,73264.8,-2.77,-43.49,-43.49,0,*54
1487516413.26,54475,14.69,73266.0,-2.77,-43.49,-43.41,0,*5D
1487516414.55,54476,14.69,73266.8,-2.77,-43.67,-43.67,0,*56
1487516415.8,54477,14.69,73264.5,-2.77,-43.21,-43.01,0,*55
1487516417.08,54478,14.63,73264.3,-2.77,-43.29,-43.29,0,*58
1487516418.32,54479,14.69,73266.5,-2.77,-43.87,-43.95,0,*5A
1487516419.58,54480,14.69,73266.0,-2.77,-43.75,-43.67,0,*5C
1487516420.82,54481,14.69,73264.5,-2.79,-43.41,-43.29,0,*5E
1487516422.05,54482,14.69,73264.8,-2.77,-43.41,-43.41,0,*5D
1487516423.34,54483,14.63,73266.0,-2.77,-43.21,-43.09,0,*56
1487516424.6,54484,14.69,73264.5,-2.79,-43.09,-43.09,0,*55
1487516425.86,54485,14.69,73264.5,-2.81,-43.61,-43.55,0,*54
1487516427.07,54486,14.63,73264.0,-2.79,-42.89,-42.89,0,*57
1487516428.3,54487,14.69,73264.3,-2.79,-42.83,-42.89,0,*5C
1487516429.51,54488,14.69,73264.3,-2.79,-43.01,-43.01,0,*59
1487516430.72,54489,14.69,73264.3,-2.79,-42.89,-43.01,0,*59
1487516431.93,54490,14.69,73266.0,-2.79,-42.89,-43.01,0,*51
1487516433.19,54491,14.69,73270.3,-2.79,-43.09,-43.09,0,*51
1487516434.42,54492,14.69,73266.8,-2.81,-43.15,-43.15,0,*55
1487516435.68,54493,14.69,73266.8,-2.79,-42.69,-42.69,0,*53
1487516436.94,54494,14.69,73264.5,-2.81,-42.75,-42.95,0,*5D
1487516438.23,54495,14.69,73266.0,-2.81,-42.95,-43.09,0,*56
1487516439.45,54496,14.69,73266.5,-2.81,-42.89,-42.89,0,*51
1487516440.74,54497,14.69,73266.5,-2.81,-42.95,-42.95,0,*50
1487516442.0,54498,14.69,73268.5,-2.81,-43.29,-43.15,0,*50
1487516443.25,54499,14.69,73266.3,-2.81,-43.09,-43.15,0,*53
1487516444.49,54500,14.69,73266.0,-2.81,-43.49,-43.49,0,*5F
1487516445.75,54501,14.69,73264.3,-2.81,-42.75,-42.95,0,*50
1487516446.97,54502,14.69,73266.5,-2.81,-42.89,-42.89,0,*5D
1487516448.26,54503,14.69,73270.8,-2.81,-42.95,-42.95,0,*5C
1487516449.54,54504,14.69,73264.3,-2.81,-42.69,-42.57,0,*56
1487516450.8,54505,14.69,73268.8,-2.81,-42.69,-42.75,0,*57
1487516452.01,54506,14.63,73264.3,-2.83,-42.75,-42.63,0,*5C
1487516453.29,54507,14.69,73264.5,-2.81,-42.31,-42.19,0,*52
1487516454.52,54508,14.69,73266.0,-2.83,-42.45,-42.37,0,*50
1487516455.73,54509,14.69,73268.0,-2.83,-42.63,-42.63,0,*54
1487516456.93,54510,14.69,73264.8,-2.83,-42.63,-42.63,0,*5C
1487516458.16,54511,14.69,73268.0,-2.83,-42.57,-42.37,0,*5B
1487516459.42,54512,14.69,73270.5,-2.81,-42.37,-42.31,0,*5A
1487516460.64,54513,14.69,73266.5,-2.81,-42.51,-42.37,0,*5D
1487516461.9,54514,14.69,73266.8,-2.81,-42.75,-42.69,0,*57
1487516463.13,54515,14.69,73268.3,-2.81,-42.89,-42.75,0,*58
1487516464.37,54516,14.69,73270.5,-2.81,-42.75,-42.75,0,*58
1487516465.62,54517,14.69,73266.0,-2.83,-42.83,-42.83,0,*5B
1487516466.83,54518,14.69,73264.5,-2.83,-43.35,-43.35,0,*54
1487516468.04,54519,14.69,73270.0,-2.83,-43.61,-43.61,0,*55
1487516469.27,54520,14.69,73266.3,-2.85,-44.07,-44.07,0,*59
1487516470.52,54521,14.69,73266.8,-2.83,-43.81,-43.81,0,*5E
1487516471.79,54522,14.69,73264.5,-2.85,-43.55,-43.41,0,*5E
1487516473.08,54523,14.69,73268.8,-2.85,-42.95,-42.95,0,*5A
1487516474.38,54524,14.69,73266.5,-2.85,-42.95,-42.95,0,*5D
1487516475.61,54525,14.69,73264.0,-2.87,-42.89,-42.83,0,*54
1487516476.85,54526,14.69,73266.5,-2.87,-42.69,-42.63,0,*57
1487516478.09,54527,14.63,73264.3,-2.87,-42.83,-42.63,0,*52
1487516479.3,54528,14.69,73268.0,-2.87,-43.01,-43.01,0,*53
1487516480.54,54529,14.69,73268.3,-2.87,-42.89,-42.69,0,*5C
1487516481.77,54530,14.69,73268.3,-2.87,-42.69,-42.63,0,*50
1487516483.01,54531,14.69,73264.8,-2.87,-42.89,-42.83,0,*51
1487516484.26,54532,14.69,73264.8,-2.89,-42.89,-42.83,0,*5C
1487516485.5,54533,14.69,73266.8,-2.87,-43.67,-43.61,0,*5F
1487516486.73,54534,14.69,73266.5,-2.87,-43.49,-43.29,0,*58
1487516487.97,54535,14.69,73266.0,-2.89,-42.89,-42.89,0,*51
1487516489.2,54536,14.69,73266.0,-2.87,-42.51,-42.45,0,*59
1487516490.43,54537,14.69,73268.0,-2.87,-42.83,-42.63,0,*53
1487516491.65,54538,14.69,73264.3,-2.87,-42.63,-42.63,0,*52
1487516492.88,54539,14.69,73264.5,-2.87,-42.69,-42.51,0,*58
1487516494.12,54540,14.69,73266.0,-2.87,-43.09,-43.01,0,*55
1487516495.34,54541,14.69,73266.0,-2.87,-43.49,-43.41,0,*54
1487516496.57,54542,14.69,73266.8,-2.87,-43.41,-43.29,0,*51
1487516497.8,54543,14.69,73270.8,-2.89,-42.89,-42.89,0,*50
1487516499.01,54544,14.69,73268.0,-2.87,-42.63,-42.51,0,*58
1487516500.29,54545,14.69,73266.0,-2.89,-42.69,-42.45,0,*58
1487516501.55,54546,14.69,73266.5,-2.89,-42.51,-42.45,0,*50
1487516502.8,54547,14.69,73266.5,-2.87,-42.83,-42.69,0,*5E
1487516504.08,54548,14.69,73266.3,-2.89,-42.83,-42.69,0,*5F
1487516505.32,54549,14.69,73264.8,-2.89,-43.01,-42.89,0,*5B
1487516506.55,54550,14.69,73266.0,-2.89,-42.89,-42.89,0,*52
1487516507.77,54551,14.69,73268.0,-2.87,-43.75,-43.49,0,*52
1487516509.05,54552,14.69,73268.8,-2.89,-43.29,-43.21,0,*58
1487516510.29,54553,14.69,73264.5,-2.89,-43.01,-43.01,0,*51
1487516511.5,54554,14.69,73266.8,-2.91,-42.89,-42.75,0,*5C
1487516512.72,54555,14.69,73266.8,-2.91,-42.89,-42.75,0,*5D
1487516513.99,54556,14.69,73266.3,-2.91,-42.95,-42.95,0,*5D
1487516515.21,54557,14.69,73266.5,-2.91,-42.89,-42.75,0,*5F
1487516516.44,54558,14.69,73264.5,-2.95,-42.89,-42.57,0,*54
1487516517.67,54559,14.69,73266.8,-2.91,-42.89,-42.57,0,*51
1487516518.93,54560,14.69,73266.8,-2.91,-42.69,-42.57,0,*55
1487516520.16,54561,14.69,73266.3,-2.91,-42.69,-42.37,0,*52
1487516521.42,54562,14.69,73266.0,-2.91,-42.57,-42.31,0,*5A
1487516522.7,54563,14.69,73264.3,-2.89,-42.31,-42.05,0,*55
1487516523.99,54564,14.69,73264.8,-2.89,-42.45,-42.31,0,*56
1487516525.28,54565,14.69,73268.3,-2.89,-42.45,-42.31,0,*57
1487516526.56,54566,14.69,73268.0,-2.89,-42.69,-42.45,0,*59
1487516527.84,54567,14.69,73264.8,-2.89,-42.83,-42.69,0,*52
1487516529.09,54568,14.69,73266.3,-2.89,-42.89,-42.83,0,*53
1487516530.37,54569,14.69,73266.5,-2.89,-42.69,-42.69,0,*58
1487516531.61,54570,14.69,73266.3,-2.89,-42.63,-42.51,0,*51
1487516532.86,54571,14.69,73266.3,-2.89,-42.89,-42.83,0,*5B
1487516534.12,54572,14.69,73268.3,-2.89,-42.83,-42.63,0,*5C
1487516535.36,54573,14.69,73264.3,-2.91,-42.51,-42.31,0,*5C
1487516536.6,54574,14.69,73264.0,-2.91,-42.69,-42.51,0,*56
1487516537.82,54575,14.69,73266.3,-2.91,-42.51,-42.25,0,*5F
1487516539.08,54576,14.69,73264.3,-2.91,-42.57,-42.31,0,*5F
1487516540.31,54577,14.69,73266.8,-2.95,-42.57,-42.37,0,*5C
1487516541.52,54578,14.69,73268.0,-2.91,-42.51,-42.37,0,*51
1487516542.75,54579,14.69,73266.5,-2.91,-42.89,-42.69,0,*5E
1487516543.99,54580,14.69,73266.3,-2.91,-42.69,-42.37,0,*5D
1487516545.22,54581,14.69,73264.8,-2.91,-42.89,-42.57,0,*54
1487516546.44,54582,14.69,73268.0,-2.91,-42.89,-42.75,0,*57
1487516547.67,54583,14.69,73264.0,-2.91,-42.75,-42.69,0,*58
1487516548.9,54584,14.69,73264.0,-2.91,-42.57,-42.37,0,*54
1487516550.11,54585,14.69,73266.0,-2.91,-42.51,-42.37,0,*53
1487516551.32,54586,14.69,73266.3,-2.91,-42.37,-42.37,0,*50
1487516552.58,54587,14.69,73264.8,-2.89,-42.45,-42.25,0,*5E
1487516553.81,54588,14.69,73264.0,-2.91,-42.31,-42.13,0,*5E
1487516555.03,54589,14.69,73264.8,-2.91,-42.37,-42.25,0,*5C
1487516556.27,54590,14.69,73262.8,-2.91,-42.51,-42.31,0,*51
1487516557.48,54591,14.69,73266.3,-2.91,-42.51,-42.37,0,*56
1487516558.69,54592,14.69,73264.0,-2.91,-42.51,-42.37,0,*55
1487516559.9,54593,14.69,73268.3,-2.91,-42.37,-42.13,0,*52
1487516561.13,54594,14.69,73268.3,-2.89,-42.25,-41.99,0,*5E
1487516562.42,54595,14.69,73264.5,-2.89,-42.45,-42.31,0,*58
1487516563.68,54596,14.69,73266.5,-2.89,-42.51,-42.31,0,*5E
1487516564.94,54597,14.69,73268.3,-2.89,-42.63,-42.45,0,*5D
1487516566.17,54598,14.69,73264.5,-2.89,-42.63,-42.51,0,*57
1487516567.4,54599,14.69,73264.8,-2.89,-42.63,-42.51,0,*56
1487516568.63,54600,14.69,73270.0,-2.89,-42.63,-42.51,0,*55
1487516569.87,54601,14.69,73264.8,-2.89,-42.63,-42.63,0,*55
1487516571.15,54602,14.69,73266.5,-2.89,-42.83,-42.69,0,*52
1487516572.36,54603,14.69,73268.8,-2.91,-42.89,-42.89,0,*5E
1487516573.63,54604,14.69,73268.0,-2.91,-43.09,-42.95,0,*5D
1487516574.89,54605,14.69,73268.3,-2.91,-43.09,-43.09,0,*58
1487516576.16,54606,14.69,73264.0,-2.91,-43.09,-42.95,0,*5F
1487516577.43,54607,14.69,73264.5,-2.95,-43.09,-42.95,0,*5A
1487516578.7,54608,14.69,73270.0,-2.91,-42.95,-43.09,0,*51
1487516579.97,54609,14.69,73268.8,-2.95,-43.09,-42.95,0,*54
1487516581.18,54610,14.69,73266.5,-2.95,-43.49,-43.35,0,*53
1487516582.42,54611,14.69,73268.0,-2.95,-42.95,-42.89,0,*54
1487516583.67,54612,14.69,73268.5,-2.95,-42.95,-42.75,0,*54
1487516584.9,54613,14.69,73268.5,-2.95,-42.95,-42.89,0,*56
1487516586.19,54614,14.69,73268.3,-2.97,-42.95,-42.83,0,*59
1487516587.4,54615,14.69,73266.3,-2.91,-42.89,-42.89,0,*59
1487516588.69,54616,14.69,73268.3,-2.97,-42.95,-42.83,0,*5B
1487516589.95,54617,14.69,73270.0,-2.97,-42.95,-42.75,0,*53
1487516591.21,54618,14.69,73270.5,-2.97,-42.75,-42.57,0,*52
1487516592.45,54619,14.69,73270.3,-2.97,-42.75,-42.63,0,*54
1487516593.71,54620,14.69,73270.0,-2.97,-42.83,-42.75,0,*50
1487516594.91,54621,14.69,73266.3,-2.99,-43.15,-43.01,0,*53
1487516596.15,54622,14.69,73266.8,-2.97,-43.01,-43.01,0,*5B
1487516597.36,54623,14.69,73266.5,-2.99,-42.75,-42.63,0,*53
1487516598.63,54624,14.69,73266.3,-2.99,-42.95,-42.83,0,*54
1487516599.86,54625,14.69,73264.5,-2.97,-42.75,-42.75,0,*5C
1487516601.1,54626,14.69,73266.8,-2.97,-43.15,-43.15,0,*5F
1487516602.34,54627,14.69,73266.8,-2.99,-43.01,-42.95,0,*5C
1487516603.57,54628,14.69,73264.0,-2.99,-42.63,-42.57,0,*58
1487516604.8,54629,14.69,73270.5,-2.99,-42.57,-42.37,0,*58
1487516606.03,54630,14.69,73268.8,-2.99,-42.57,-42.37,0,*50
1487516607.28,54631,14.69,73264.8,-2.99,-42.57,-42.45,0,*54
1487516608.51,54632,14.69,73266.3,-2.99,-42.63,-42.57,0,*53
1487516609.74,54633,14.69,73262.5,-2.99,-42.75,-42.57,0,*55
1487516610.99,54634,14.69,73264.0,-2.97,-42.63,-42.45,0,*58
1487516612.28,54635,14.69,73264.8,-2.97,-42.45,-42.31,0,*5E
1487516613.53,54636,14.69,73264.0,-2.99,-42.57,-42.45,0,*53
1487516614.78,54637,14.69,73264.3,-2.99,-42.57,-42.57,0,*51
1487516616.04,54638,14.69,73268.3,-2.97,-42.75,-42.57,0,*50
1487516617.26,54639,14.69,73264.3,-2.99,-42.63,-42.57,0,*58
1487516618.52,54640,14.69,73268.5,-2.97,-42.63,-42.45,0,*5B
1487516619.79,54641,14.69,73264.0,-2.97,-42.57,-42.45,0,*5D
1487516621.08,54642,14.69,73268.5,-2.97,-42.45,-42.19,0,*54
1487516622.31,54643,14.69,73264.8,-2.99,-42.19,-42.13,0,*58
1487516623.57,54644,14.69,73268.5,-2.97,-42.37,-42.31,0,*5D
1487516624.83,54645,14.69,73266.3,-2.97,-42.75,-42.45,0,*59
1487516626.06,54646,14.69,73266.3,-2.99,-42.63,-42.45,0,*53
1487516627.32,54647,14.69,73268.5,-2.99,-42.95,-42.83,0,*51
1487516628.55,54648,14.69,73266.8,-2.99,-43.35,-43.21,0,*5C
1487516629.79,54649,14.69,73266.3,-2.99,-43.01,-42.83,0,*53
1487516631.0,54650,14.69,73268.3,-2.99,-43.15,-43.01,0,*55
1487516632.2,54651,14.69,73268.0,-2.99,-43.15,-43.01,0,*54
1487516633.48,54652,14.69,73264.0,-3.01,-43.21,-43.21,0,*52
1487516634.74,54653,14.69,73266.5,-3.03,-43.81,-43.67,0,*59
1487516636.0,54654,14.69,73266.3,-3.03,-43.21,-43.21,0,*56
1487516637.23,54655,14.69,73264.8,-3.03,-42.89,-42.83,0,*5D
1487516638.46,54656,14.69,73266.0,-3.03,-42.89,-42.83,0,*5E
1487516639.72,54657,14.69,73266.0,-3.03,-43.21,-43.09,0,*5F
1487516640.98,54658,14.69,73264.5,-3.03,-42.83,-42.69,0,*5E
1487516642.21,54659,14.69,73268.3,-3.03,-42.51,-42.45,0,*5E
1487516643.45,54660,14.69,73264.0,-3.03,-42.69,-42.51,0,*5A
1487516644.65,54661,14.69,73264.5,-3.03,-42.63,-42.37,0,*51
1487516645.89,54662,14.69,73268.3,-3.03,-42.63,-42.45,0,*57
1487516647.16,54663,14.69,73266.8,-3.05,-42.69,-42.57,0,*59
1487516648.41,54664,14.69,73268.8,-3.05,-42.57,-42.51,0,*55
1487516649.67,54665,14.69,73266.8,-3.05,-42.69,-42.51,0,*59
1487516650.93,54666,14.69,73266.5,-3.03,-42.83,-42.69,0,*53
1487516652.2,54667,14.69,73266.3,-3.05,-42.57,-42.57,0,*50
1487516653.44,54668,14.69,73266.8,-3.05,-42.89,-42.75,0,*5C
1487516654.69,54669,14.69,73264.3,-3.05,-42.89,-42.57,0,*5D
1487516655.92,54670,14.69,73264.3,-3.05,-42.89,-42.75,0,*55
1487516657.18,54671,14.69,73266.3,-3.05,-42.95,-42.89,0,*5A
1487516658.43,54672,14.69,73266.0,-3.05,-42.75,-42.69,0,*59
1487516659.7,54673,14.69,73264.8,-3.07,-42.95,-42.83,0,*50
1487516660.91,54674,14.69,73266.0,-3.07,-43.01,-43.15,0,*55
1487516662.16,54675,14.69,73264.0,-3.07,-43.01,-42.95,0,*5D
1487516663.37,54676,14.69,73268.0,-3.07,-42.63,-42.51,0,*53
1487516664.64,54677,14.69,73266.8,-3.05,-42.57,-42.45,0,*52
1487516665.91,54678,14.69,73266.5,-3.05,-42.57,-42.57,0,*5E
1487516667.17,54679,14.69,73264.0,-3.05,-42.57,-42.51,0,*59
1487516668.44,54680,14.69,73268.5,-3.05,-42.57,-42.57,0,*59
1487516669.67,54681,14.69,73266.8,-3.07,-42.63,-42.57,0,*5D
1487516670.88,54682,14.69,73270.0,-3.07,-42.63,-42.37,0,*58
1487516672.15,54683,14.69,73266.0,-3.05,-42.69,-42.69,0,*5A
1487516673.41,54684,14.69,73264.8,-3.05,-42.75,-42.69,0,*50
1487516674.63,54685,14.69,73266.0,-3.07,-42.75,-42.75,0,*5E
1487516675.84,54686,14.69,73268.8,-3.07,-42.75,-42.63,0,*5A
1487516677.11,54687,14.69,73266.8,-3.05,-42.57,-42.57,0,*5E
1487516678.33,54688,14.69,73264.5,-3.07,-42.63,-42.63,0,*53
1487516679.55,54689,14.69,73264.0,-3.07,-42.63,-42.57,0,*55
1487516680.79,54690,14.69,73266.3,-3.09,-42.63,-42.63,0,*54
1487516682.05,54691,14.69,73270.8,-3.09,-42.63,-42.57,0,*52
1487516683.31,54692,14.69,73270.5,-3.09,-42.83,-42.63,0,*58
1487516684.57,54693,14.69,73264.0,-3.07,-42.95,-42.83,0,*5E
1487516685.83,54694,14.69,73264.3,-3.09,-43.15,-43.21,0,*57
1487516687.11,54695,14.69,73270.0,-3.09,-43.21,-43.21,0,*51
1487516688.37,54696,14.69,73266.0,-3.09,-42.83,-42.75,0,*5B
1487516689.58,54697,14.69,73264.8,-3.11,-43.35,-43.35,0,*5A
1487516690.8,54698,14.69,73268.3,-3.11,-43.01,-43.01,0,*55
1487516692.03,54699,14.69,73266.0,-3.09,-43.15,-43.01,0,*58
1487516693.27,54700,14.69,73266.0,-3.11,-43.09,-43.01,0,*5D
1487516694.52,54701,14.69,73268.3,-3.11,-43.21,-43.21,0,*54
1487516695.73,54702,14.69,73266.0,-3.11,-43.49,-43.49,0,*57
1487516697.01,54703,14.69,73266.3,-3.09,-43.21,-43.21,0,*5F
1487516698.25,54704,14.69,73264.0,-3.13,-43.01,-42.89,0,*52
1487516699.48,54705,14.69,73264.5,-3.17,-43.15,-43.01,0,*53
1487516700.76,54706,14.69,73266.8,-3.13,-43.21,-43.09,0,*5B
1487516701.99,54707,14.69,73266.3,-3.13,-43.01,-43.01,0,*50
1487516703.23,54708,14.69,73268.3,-3.17,-42.89,-42.75,0,*58
1487516704.49,54709,14.69,73266.0,-3.17,-42.89,-42.69,0,*54
1487516705.75,54710,14.69,73266.8,-3.17,-43.29,-43.15,0,*5D
1487516707.03,54711,14.69,73266.3,-3.17,-43.09,-43.09,0,*53
1487516708.27,54712,14.69,73262.3,-3.17,-42.75,-42.63,0,*57
1487516709.51,54713,14.69,73264.3,-3.17,-42.75,-42.51,0,*57
1487516710.78,54714,14.69,73264.8,-3.13,-42.57,-42.45,0,*51
1487516712.04,54715,14.69,73264.8,-3.17,-42.89,-42.69,0,*59
1487516713.3,54716,14.69,73264.5,-3.17,-42.69,-42.51,0,*5F
1487516714.59,54717,14.69,73262.0,-3.17,-42.31,-42.31,0,*55
1487516715.85,54718,14.69,73264.3,-3.17,-42.31,-42.25,0,*5F
1487516717.14,54719,14.69,73264.8,-3.17,-42.31,-42.31,0,*5B
1487516718.39,54720,14.69,73264.0,-3.13,-42.57,-42.37,0,*53
1487516719.64,54721,14.69,73264.0,-3.13,-42.63,-42.45,0,*50
1487516720.89,54722,14.69,73266.3,-3.13,-42.57,-42.37,0,*51
1487516722.17,54723,14.69,73270.3,-3.13,-42.69,-42.57,0,*5B
1487516723.45,54724,14.69,73266.3,-3.13,-42.69,-42.69,0,*51
1487516724.73,54725,14.69,73266.3,-3.13,-42.83,-42.69,0,*54
1487516725.98,54726,14.69,73266.5,-3.13,-43.21,-43.01,0,*51
1487516727.24,54727,14.69,73266.3,-3.13,-42.89,-42.69,0,*5C
1487516728.5,54728,14.69,73266.5,-3.17,-42.89,-42.69,0,*57
1487516729.76,54729,14.69,73266.0,-3.17,-42.75,-42.69,0,*55
1487516731.02,54730,14.69,73268.0,-3.17,-42.95,-42.89,0,*5D
1487516732.27,54731,14.69,73264.3,-3.13,-42.89,-42.83,0,*5F
1487516733.53,54732,14.69,73266.3,-3.17,-42.95,-42.89,0,*5F
1487516734.8,54733,14.69,73264.5,-3.17,-43.09,-42.75,0,*59
1487516736.06,54734,14.69,73266.0,-3.17,-43.29,-43.15,0,*5B
1487516737.34,54735,14.69,73264.8,-3.21,-43.21,-43.21,0,*50
1487516738.57,54736,14.69,73268.0,-3.19,-43.15,-43.29,0,*57
1487516739.8,54737,14.69,73266.0,-3.19,-43.15,-43.09,0,*54
1487516741.07,54738,14.69,73262.5,-3.19,-43.09,-42.95,0,*52
1487516742.32,54739,14.69,73266.3,-3.19,-42.83,-42.69,0,*53
1487516743.54,54740,14.69,73262.8,-3.19,-42.75,-42.63,0,*5E
1487516744.83,54741,14.69,73266.0,-3.21,-42.95,-42.83,0,*54
1487516746.09,54742,14.69,73264.0,-3.21,-42.83,-42.75,0,*59
1487516747.32,54743,14.69,73266.0,-3.19,-42.63,-42.45,0,*5E
1487516748.55,54744,14.69,73264.8,-3.19,-42.63,-42.45,0,*59
1487516749.83,54745,14.69,73264.3,-3.21,-42.69,-42.57,0,*5A
1487516751.04,54746,14.69,73264.5,-3.19,-42.75,-42.63,0,*58
1487516752.28,54747,14.69,73266.3,-3.21,-43.15,-43.01,0,*50
1487516753.52,54748,14.69,73268.8,-3.19,-42.95,-42.75,0,*5F
1487516754.78,54749,14.69,73264.3,-3.21,-43.15,-42.95,0,*52
1487516756.04,54750,14.69,73262.3,-3.21,-43.21,-43.01,0,*51
1487516757.29,54751,14.69,73266.5,-3.21,-43.21,-43.01,0,*50
1487516758.53,54752,14.69,73266.8,-3.23,-43.01,-42.83,0,*58
1487516759.77,54753,14.69,73264.3,-3.23,-42.95,-42.75,0,*5C
1487516761.01,54754,14.69,73264.3,-3.23,-42.95,-42.75,0,*5B
1487516762.26,54755,14.69,73266.8,-3.23,-42.83,-42.69,0,*50
1487516763.52,54756,14.69,73264.8,-3.23,-42.95,-42.69,0,*54
1487516764.73,54757,14.69,73264.5,-3.23,-42.89,-42.75,0,*55
1487516765.99,54758,14.69,73266.0,-3.23,-42.95,-42.83,0,*5E
1487516767.27,54759,14.69,73264.8,-3.25,-43.21,-43.09,0,*54
1487516768.53,54760,14.69,73264.0,-3.23,-42.95,-42.83,0,*55
1487516769.78,54761,14.69,73264.3,-3.23,-42.83,-42.83,0,*53
1487516771.04,54762,14.69,73266.8,-3.25,-42.89,-42.83,0,*5C
1487516772.32,54763,14.69,73264.5,-3.25,-43.29,-43.09,0,*55
1487516773.56,54764,14.69,73264.5,-3.25,-43.61,-43.61,0,*50
1487516774.85,54765,14.69,73264.5,-3.25,-43.81,-43.67,0,*59
1487516776.13,54766,14.69,73266.3,-3.25,-44.01,-43.81,0,*5D
1487516777.36,54767,14.69,73264.5,-3.29,-44.07,-43.87,0,*50
1487516778.61,54768,14.69,73264.0,-3.29,-43.49,-43.29,0,*56
1487516779.9,54769,14.69,73264.3,-3.29,-42.95,-42.83,0,*56
1487516781.16,54770,14.69,73264.5,-3.27,-43.09,-42.95,0,*53
1487516782.42,54771,14.69,73260.8,-3.29,-43.29,-43.15,0,*57
1487516783.66,54772,14.69,73264.8,-3.29,-43.35,-43.35,0,*5B
1487516784.91,54773,14.69,73266.5,-3.29,-43.35,-43.29,0,*57
1487516786.14,54774,14.69,73264.0,-3.29,-43.49,-43.49,0,*5D
1487516787.38,54775,14.69,73264.5,-3.29,-43.49,-43.49,0,*5C
1487516788.61,54776,14.69,73266.8,-3.29,-43.15,-42.89,0,*5B
1487516789.87,54777,14.69,73264.8,-3.29,-43.15,-43.09,0,*53
1487516791.13,54778,14.69,73264.8,-3.29,-43.09,-43.15,0,*5C
1487516792.38,54779,14.69,73260.8,-3.33,-43.21,-43.15,0,*5C
1487516793.64,54780,14.69,73262.3,-3.33,-43.35,-43.21,0,*58
1487516794.89,54781,14.69,73266.8,-3.33,-43.01,-42.75,0,*5E
1487516796.15,54782,14.69,73266.8,-3.33,-43.21,-43.01,0,*5D
1487516797.38,54783,14.69,73260.5,-3.35,-43.35,-43.21,0,*5D
1487516798.61,54784,14.69,73266.0,-3.35,-43.21,-43.15,0,*58
1487516799.86,54785,14.69,73264.5,-3.35,-43.01,-42.95,0,*52
1487516801.1,54786,14.69,73264.5,-3.33,-43.41,-43.35,0,*58
1487516802.32,54787,14.69,73262.5,-3.35,-43.41,-43.15,0,*5D
1487516803.53,54788,14.69,73266.3,-3.35,-43.15,-42.89,0,*57
1487516804.76,54789,14.69,73264.3,-3.33,-43.15,-43.15,0,*54
1487516806.0,54790,14.69,73264.3,-3.35,-43.15,-42.95,0,*53
1487516807.22,54791,14.69,73266.3,-3.35,-43.01,-42.89,0,*5A
1487516808.47,54792,14.69,73266.3,-3.35,-43.01,-42.95,0,*54
1487516809.7,54793,14.69,73262.0,-3.35,-43.41,-43.21,0,*5F
1487516810.91,54794,14.69,73266.0,-3.35,-43.15,-43.01,0,*5B
1487516812.16,54795,14.69,73266.3,-3.35,-43.01,-42.95,0,*53
1487516813.45,54796,14.69,73266.8,-3.37,-43.09,-42.95,0,*5A
1487516814.75,54797,14.69,73264.5,-3.37,-43.09,-42.95,0,*5B
1487516816.03,54798,14.69,73262.8,-3.37,-43.09,-42.83,0,*53
1487516817.32,54799,14.69,73264.5,-3.37,-43.09,-42.83,0,*52
1487516818.59,54800,14.69,73264.8,-3.37,-43.01,-42.95,0,*52
1487516819.85,54801,14.69,73264.0,-3.37,-43.41,-43.21,0,*59
1487516821.1,54802,14.69,73264.0,-3.37,-43.49,-43.41,0,*54
1487516822.34,54803,14.69,73266.8,-3.37,-43.61,-43.41,0,*5F
1487516823.62,54804,14.69,73262.0,-3.37,-43.21,-43.09,0,*50
1487516824.9,54805,14.69,73264.5,-3.37,-43.21,-43.21,0,*5B
1487516826.14,54806,14.69,73262.3,-3.39,-43.01,-42.83,0,*5D
1487516827.4,54807,14.69,73264.5,-3.39,-43.09,-42.83,0,*54
1487516828.63,54808,14.69,73262.5,-3.39,-42.83,-42.63,0,*56
1487516829.87,54809,14.69,73266.0,-3.39,-43.01,-42.95,0,*55
1487516831.13,54810,14.69,73264.8,-3.39,-42.95,-42.83,0,*56
1487516832.39,54811,14.69,73264.5,-3.39,-43.21,-43.09,0,*5A
1487516833.62,54812,14.69,73266.0,-3.39,-42.83,-42.63,0,*5D
1487516834.85,54813,14.69,73266.0,-3.39,-42.83,-42.75,0,*5B
1487516836.11,54814,14.69,73264.3,-3.39,-43.21,-42.95,0,*5B
1487516837.35,54815,14.69,73264.3,-3.39,-43.01,-42.83,0,*5F
1487516838.58,54816,14.69,73266.8,-3.39,-42.83,-42.75,0,*5E
1487516839.82,54817,14.69,73262.3,-3.39,-42.95,-42.75,0,*58
1487516841.06,54818,14.69,73262.8,-3.39,-43.01,-42.83,0,*52
1487516842.29,54819,14.69,73262.0,-3.39,-43.01,-42.83,0,*53
1487516843.5,54820,14.69,73264.5,-3.39,-42.75,-42.63,0,*55
1487516844.75,54821,14.69,73264.5,-3.39,-42.57,-42.57,0,*53
1487516845.98,54822,14.69,73262.8,-3.39,-42.63,-42.57,0,*57
1487516847.23,54823,14.69,73260.0,-3.39,-42.45,-42.57,0,*52
1487516848.45,54824,14.69,73262.8,-3.39,-43.01,-42.75,0,*54
1487516849.69,54825,14.69,73264.0,-3.39,-43.01,-42.95,0,*5B
1487516850.9,54826,14.69,73260.5,-3.39,-42.75,-42.63,0,*53
1487516852.15,54827,14.69,73266.5,-3.39,-42.83,-42.45,0,*5F
1487516853.37,54828,14.69,73266.8,-3.39,-43.01,-42.75,0,*58
1487516854.59,54829,14.69,73264.5,-3.39,-43.01,-42.63,0,*5E
1487516855.87,54830,14.69,73260.5,-3.43,-43.09,-42.83,0,*5D
1487516857.12,54831,14.69,73264.8,-3.43,-42.89,-42.69,0,*51
1487516858.4,54832,14.69,73260.5,-3.43,-42.83,-42.69,0,*58
1487516859.66,54833,14.69,73264.0,-3.43,-42.89,-42.69,0,*53
1487516860.92,54834,14.69,73262.8,-3.43,-42.69,-42.63,0,*50
1487516862.17,54835,14.69,73260.5,-3.43,-42.89,-42.83,0,*51
1487516863.42,54836,14.69,73264.3,-3.43,-42.83,-42.51,0,*57
1487516864.68,54837,14.69,73264.3,-3.43,-42.69,-42.51,0,*52
1487516865.94,54838,14.69,73262.3,-3.43,-42.83,-42.51,0,*59
1487516867.17,54839,14.69,73264.8,-3.43,-42.63,-42.51,0,*56
1487516868.39,54840,14.69,73266.0,-3.39,-42.63,-42.57,0,*53
1487516869.64,54841,14.69,73264.8,-3.39,-42.95,-42.75,0,*5B
1487516870.89,54842,14.69,73262.8,-3.43,-43.09,-43.01,0,*53
1487516872.15,54843,14.69,73260.3,-3.43,-43.15,-43.09,0,*57
1487516873.41,54844,14.69,73262.0,-3.43,-42.69,-42.63,0,*57
1487516874.67,54845,14.69,73266.5,-3.43,-43.09,-42.89,0,*55
1487516875.89,54846,14.69,73266.3,-3.43,-43.15,-43.01,0,*5A
1487516877.18,54847,14.69,73264.5,-3.43,-43.29,-43.09,0,*5C
1487516878.41,54848,14.69,73264.3,-3.43,-43.35,-43.35,0,*51
1487516879.62,54849,14.69,73264.5,-3.45,-42.89,-42.75,0,*55
1487516880.85,54850,14.69,73260.0,-3.45,-42.89,-42.69,0,*50
1487516882.13,54851,14.69,73264.8,-3.43,-43.09,-42.83,0,*5A
1487516883.41,54852,14.69,73264.8,-3.43,-43.09,-42.83,0,*59
1487516884.64,54853,14.69,73260.8,-3.45,-43.15,-43.09,0,*50
1487516885.87,54854,14.75,73264.3,-3.45,-43.09,-42.75,0,*50
1487516887.13,54855,14.69,73264.3,-3.43,-42.69,-42.63,0,*57
1487516888.41,54856,14.69,73262.5,-3.43,-42.45,-42.45,0,*5E
1487516889.64,54857,14.69,73262.0,-3.45,-42.95,-42.89,0,*54
1487516890.9,54858,14.69,73266.8,-3.43,-43.29,-43.15,0,*5F
1487516892.12,54859,14.69,73260.5,-3.45,-43.21,-43.15,0,*50
1487516893.36,54860,14.69,73262.8,-3.45,-43.55,-43.41,0,*58
1487516894.58,54861,14.69,73262.5,-3.47,-43.35,-43.15,0,*5C
1487516895.82,54862,14.69,73262.0,-3.47,-43.41,-43.35,0,*5E
1487516897.05,54863,14.75,73266.5,-3.47,-43.41,-43.35,0,*5F
1487516898.29,54864,14.69,73260.0,-3.47,-43.41,-43.35,0,*58